Regional Weather Roundup
Issued by NWS Cleveland, OH

Home | Current Version | Previous Version | Text Only | Print | Product List | Glossary Off
Versions: 1 2 3 4 5 6 7 8 9 10 11 12 13 14 15 16 17 18 19 20 21 22 23 24 25 26 27 28 29 30 31 32 33 34 35 36 37 38 39 40 41 42 43 44 45 46 47 48 49 50

000
ASUS41 KCLE 231100
RWRCLE
OHIO REGIONAL WEATHER ROUNDUP
NATIONAL WEATHER SERVICE WILMINGTON, OH
700 AM EDT SUN APR 23 2017

NOTE: "FAIR" INDICATES FEW OR NO CLOUDS BELOW 12,000 FEET WITH NO
SIGNIFICANT WEATHER AND/OR OBSTRUCTIONS TO VISIBILITY.

OHZ001>008-015>018-024>027-034-035-043-044-231200-
   NORTHWEST OHIO

CITY           SKY/WX    TMP DP  RH WIND       PRES   REMARKS
DEFIANCE       FAIR      33  31  92 CALM      30.13R
FINDLAY        FAIR      35  29  78 CALM      30.11R
TOLEDO EXPRESS FAIR      36  34  92 CALM      30.12S
TOLEDO EXEC    FAIR      36  33  89 N3        30.14R
LIMA           FAIR      34  31  88 NE5       30.10R WCI  30
$$

OHZ009>014-019>023-028>033-038-089-231200-
   NORTHEAST OHIO

CITY           SKY/WX    TMP DP  RH WIND       PRES   REMARKS
CLE-HOPKINS    FAIR      38  33  82 CALM      30.14R
CLE-LAKEFRONT  FAIR      41  35  79 CALM      30.11R
CUY CO. ARPT   CLEAR     41  36  81 SE6       30.12
LORAIN-ELYRIA  FAIR      34  32  92 CALM      30.13R
ASHTABULA      FAIR      33  32  96 CALM      30.13R
AKRON-CANTON   FAIR      36  31  82 NE7       30.10R
WOOSTER        NOT AVBL
MANSFIELD      FAIR      38  32  79 NE5       30.10R
YOUNGSTOWN     FAIR      31  30  96 E6        30.11R WCI  25
$$

OHZ042-051>053-060>062-070>072-077>081-231200-
  SOUTHWEST OHIO

CITY           SKY/WX    TMP DP  RH WIND       PRES   REMARKS
CINC-COVINGTON FAIR      43  35  73 NE13      30.01S
CINC-LUNKEN    FAIR      40  37  89 NE7       30.04S
HAMILTON       FAIR      42  37  82 NE8       30.05S
DAYTON         NOT AVBL
WRIGHT-PAT AFB FAIR      37  34  89 NE8       30.06S
DAYTON GENERAL FAIR      41  35  79 NE12      30.03F
WILMINGTON     FAIR      39  36  89 NE12      30.03F
$$

OHZ036-037-039>041-045>050-054>059-063>069-073>076-082>088-231200-
  CENTRAL AND SOUTHEAST OHIO

CITY           SKY/WX    TMP DP  RH WIND       PRES   REMARKS
COLUMBUS       FAIR      39  34  82 NE7       30.07S
OSU AIRPORT    FAIR      36  33  89 NE5       30.07F
BOLTON FIELD   NOT AVBL
RICKENBACK AFB NOT AVBL
NEWARK         FAIR      38  33  82 VRB3      30.07S
MARION         FAIR      34  29  82 N7        30.09S WCI  28
LANCASTER      FAIR      39  34  82 CALM      30.06F
ZANESVILLE     FAIR      38  33  82 CALM      30.07S
NEW PHILLY     FAIR      34  33  96 CALM      30.11R
$$




USA.gov is the U.S. government's official web portal to all federal, state and local government web resources and services.